AKST,Max TemperatureF,Mean TemperatureF,Min TemperatureF,Max Dew PointF,MeanDew PointF,Min DewpointF,Max Humidity, Mean Humidity, Min Humidity, Max Sea Level PressureIn, Mean Sea Level PressureIn, Min Sea Level PressureIn, Max VisibilityMiles, Mean VisibilityMiles, Min VisibilityMiles, Max Wind SpeedMPH, Mean Wind SpeedMPH, Max Gust SpeedMPH,PrecipitationIn, CloudCover, Events, WindDirDegrees
2014-2-1,39,36,33,34,31,30,93,82,70,30.22,30.20,30.18,10,10,10,14,10,,0.00,4,,352
2014-2-2,41,39,37,28,27,27,70,64,57,30.30,30.29,30.28,10,10,10,14,9,,0.00,1,,23
2014-2-3,37,35,33,23,22,19,65,59,56,30.48,30.47,30.46,10,10,10,7,6,,0.00,1,,58
2014-2-4,33,32,30,28,18,14,87,59,51,30.60,30.58,30.55,10,10,10,9,8,,0.00,1,,42
2014-2-5,33,30,28,27,17,10,75,56,41,30.58,30.56,30.52,10,10,10,8,5,,0.00,0,,30
2014-2-6,33,32,28,19,19,18,69,62,52,30.29,30.16,30.01,10,10,10,9,6,,0.00,0,,5
2014-2-7,30,29,28,27,26,25,86,85,80,30.00,29.96,29.91,10,10,10,6,6,,0.00,6,,8
2014-2-8,33,30,28,28,22,16,86,74,55,30.15,30.13,30.11,10,10,10,9,7,17,0.00,1,,10
2014-2-9,30,28,26,21,16,12,80,62,55,30.01,29.99,29.96,10,10,10,8,7,,0.00,4,Snow,5
2014-2-10,28,25,24,18,16,14,74,64,59,29.62,29.56,29.53,10,10,10,29,24,40,0.00,6,,10
2014-2-11,24,24,24,19,18,16,80,74,69,29.68,29.46,29.33,10,7,5,29,24,40,0.00,6,Snow,18
2014-2-12,26,25,24,25,22,21,93,85,80,29.51,29.50,29.48,10,6,1,12,6,,0.00,8,Snow,360
2014-2-13,39,36,33,37,35,32,100,94,93,29.32,29.31,29.30,7,7,5,17,9,,0.00,8,Fog-Rain-Snow,157
2014-2-14,41,38,35,37,33,32,87,79,70,29.33,29.23,29.03,10,9,5,20,12,34,0.00,7,Rain-Snow,205
2014-2-15,42,40,39,41,40,39,100,97,93,29.07,28.96,28.88,10,8,7,17,15,,0.00,8,Rain,196
2014-2-16,35,34,33,34,32,32,93,91,87,29.22,29.16,29.07,10,7,2,12,3,,0.00,7,Snow,10
2014-2-17,35,34,33,34,33,32,100,93,87,29.30,29.27,29.21,10,7,0,9,3,,0.00,7,Snow,45
2014-2-18,35,34,33,32,31,30,93,89,81,29.19,29.16,29.14,10,6,0,14,11,,0.00,8,Snow,34
2014-2-19,35,34,33,32,31,30,93,89,87,29.61,29.57,29.53,10,7,1,4,2,,0.00,7,Snow,80
2014-2-20,35,34,33,32,30,28,93,83,75,30.00,29.88,29.75,10,9,7,12,2,,0.00,6,Snow,305
2014-2-21,33,32,32,34,32,30,100,93,87,30.23,30.22,30.22,10,8,2,5,2,,0.00,8,Snow,330
2014-2-22,35,34,32,30,30,28,93,86,75,30.29,30.28,30.27,10,10,10,10,7,20,0.00,4,,12
2014-2-23,39,34,30,25,22,16,69,59,51,30.19,30.13,30.08,10,10,10,17,16,23,0.00,0,,52
2014-2-24,35,34,33,32,27,23,87,72,65,30.13,30.13,30.12,10,10,10,14,11,23,0.00,4,,25
2014-2-25,37,36,35,32,29,28,87,74,70,30.12,30.10,30.08,10,10,10,21,19,32,0.00,5,,10
2014-2-26,44,42,39,41,38,36,93,88,81,29.88,29.84,29.78,10,10,10,14,11,25,0.00,5,,6
2014-2-27,41,40,39,39,39,37,93,93,93,29.87,29.84,29.81,10,10,10,12,11,,0.00,7,,16
2014-2-28,42,40,39,39,39,37,93,92,87,29.94,29.93,29.92,10,10,10,12,11,20,0.00,2,,180